Marcopolo 2

operational
NORAD ID: 20762 Int'l Des: 1990-074 Owner: BSB Country: UK
HEOCIRCULAR

About Marcopolo 2

Description loading...

Live Position

Loading 3D Globe...

Upcoming Passes

Altitude History

Altitude vs Time

uPlot chart will show altitude changes over time

Two-Line Element Set

1 20762U 90074A 26062.45320804 .00000050 00000-0 00000+0 0 9993
2 20762 14.5167 7.4340 0005631 278.8743 85.4251 0.99206220 45166
Epoch: Mar 3, 2026 • Age: 17 hours

Current Status

Altitude 36110.7 km
Velocity 3.06 km/s
Sub-Earth Point 14.50°N, 46.52°E
Launch Date Aug 18, 1990
Age 35.5 years
Type other

Technical Details

Classification Payload
Mass 690.00 kg
Dry Mass 500.00 kg
Total Mass 1233.00 kg
Length 7.20 m
Diameter 2.20 m
Span 7.20 m
Shape Cyl
Manufacturer HSES
Bus Type HS-376
Phase Status Renamed
Owner/State BSB/UK

Large Constellations

Loading constellations...